Location: Thompson
(55.7500°N, 97.8670°W)
Time: 21:18:04
(UTC-05:00)

Daily predictions for brighter satellites

Satellite Brightness Start Highest point End
(mag) Time Altitude Azimuth Time Altitude Azimuth Time Altitude Azimuth
SL-16 R/B 3.2 22:45:20 10° NNW 22:50:42 40° NE 22:56:01 10° ESE
Cosmos 1656 4.0 22:46:30 10° NW 22:51:53 61° WSW 22:57:16 10° SSE
Cosmos 1437 Rocket 4.4 22:51:18 10° NNW 22:54:44 31° W 22:58:10 10° SSW
SL-08 RB Rocket 4.2 22:52:05 10° S 22:56:30 58° WSW 23:00:58 10° NNW
Cosmos 1892 Rocket 3.6 22:55:16 10° S 22:59:42 86° E 23:04:08 10° NNE
Cosmos 1271 Rocket 3.4 22:56:59 10° N 23:00:43 44° ENE 23:04:29 10° SE
Cosmos 1680 Rocket 4.4 22:56:43 10° SW 23:01:50 54° NW 23:06:58 10° NNE
Cosmos 1602 Rocket 4.2 23:01:37 10° SSE 23:05:39 40° E 23:09:43 10° NNE
Cosmos 1833 Rocket 3.2 23:03:10 10° S 23:08:21 40° ESE 23:13:34 10° NE
SL-19 R/B 4.5 23:04:57 10° SSE 23:09:01 62° ENE 23:12:33 10° NNW
Cosmos 389 Rocket 3.7 23:11:41 10° N 23:14:50 30° ENE 23:17:56 10° SE
Cosmos 1953 3.4 23:11:30 10° N 23:15:16 34° ENE 23:19:02 10° SE
Cosmos 1420 Rocket 4.2 23:10:52 10° NNW 23:16:08 68° WSW 23:21:19 10° SSE
Cosmos 2218 Rocket 4.2 23:10:58 10° NNW 23:17:08 76° W 23:23:18 10° S
Meteor 2-14 Rocket 4.5 23:13:31 10° NNW 23:19:40 85° E 23:25:44 10° SSE
Cosmos 1515 4.5 23:18:41 10° SSW 23:22:25 53° WNW 23:26:11 10° N
COSMOS 2487 2.4 23:19:38 10° SSW 23:23:11 74° ESE 23:26:48 10° NNE
Cosmos 1066 Rocket 4.2 23:17:46 10° S 23:23:18 76° E 23:29:01 10° NNE
DELTA 2 DEB (DPAF) 4.4 23:20:03 11° SSE 23:24:22 61° ENE 23:28:50 10° N
Cosmos 1331 Rocket 4.5 23:19:42 10° NNW 23:24:49 54° NE 23:29:52 10° SE
Cosmos 1110 Rocket 4.3 23:21:31 10° NNW 23:26:46 61° ENE 23:31:51 10° SE
CZ-2C R/B 4.5 23:24:04 10° ESE 23:28:58 33° ENE 23:34:03 10° N
Cosmos 1766 3.3 23:27:20 10° NNW 23:31:17 78° W 23:35:01 11° S
Cosmos 2360 Rocket 3.4 23:26:07 10° NNW 23:31:23 37° NE 23:36:36 10° ESE
CARTOSAT-1 3.9 23:27:32 10° S 23:31:49 63° WSW 23:36:08 10° NNW
Cosmos 1544 3.1 23:29:07 10° N 23:32:46 71° ENE 23:35:56 13° SSE
Cosmos 1980 Rocket 2.4 23:27:15 10° NW 23:32:54 66° WSW 23:38:08 12° SSE
Lacrosse 5 rocket 1.6 23:35:20 10° WNW 23:39:57 75° SSW 23:44:36 10° ESE
Cosmos 2322 Rocket 2.4 23:37:46 10° NNW 23:43:30 72° NE 23:48:59 11° SE
Meteor 1-21 4.4 23:39:17 10° S 23:44:52 61° E 23:50:35 10° NNE
Cosmos 1470 3.6 23:43:28 10° N 23:47:16 40° ENE 23:50:32 13° SE
SME Rocket 3.5 23:43:00 12° SE 23:47:20 57° ENE 23:51:08 10° NNW
USA 267 4.5 23:44:48 10° E 23:49:19 19° SE 23:52:59 13° SSE
Cosmos 1812 Rocket 4.1 23:47:02 10° NNW 23:51:26 55° W 23:55:42 11° S
Terra 2.6 23:47:02 10° S 23:51:37 46° W 23:56:14 10° NNW
Nadezhda 3 Rocket 4.2 23:46:50 11° S 23:52:47 60° E 23:59:01 10° NNE
